(78425) = 2002 QO42 = 1963 TX

Discovered at Palomar on 2002-08-30 by NEAT.

Orbit

Orbit type: Main Belt

Note: WebGL enabled browser required.

epoch2023-09-13.0
epoch JD2460200.5
perihelion date2020-08-12.07339
perihelion JD2459073.57339
argument of perihelion (°)290.38856
ascending node (°)98.71383
inclination (°)7.98266
eccentricity0.3119365
perihelion distance (AU)1.8393538
Tisserand w.r.t. Jupiter3.3
ΔV w.r.t. Earth (km/sec)8.9
semimajor axis (AU)2.6732327
mean anomaly (°)254.12321
mean daily motion (°/day)0.22550110
aphelion distance (AU)3.507
period (years)4.37
P-vector [x]0.86477400
P-vector [y]0.49675481
P-vector [z]0.07348864
Q-vector [x]-0.48303494
Q-vector [y]0.78287597
Q-vector [z]0.39215107
absolute magnitude15.04
phase slope0.15
uncertainty0
referenceMPEC 2023-W66
observations used1112
oppositions18
arc length (days)9016
first opposition used1998
last opposition used2023
residual rms (arc-secs)0.64
perturbers coarse indicatorM-v
perturbers precise indicator003Ek
first observation date used1998-10-12.0
last observation date used2023-06-19.0
computer nameMPCLINUX
JD of orbit computation2456937.478604
perihelion JD uncertainty (days)4.1128E-05
argument of perihelion uncertainty (°)3.4554E-05
ascending node uncertainty (°)3.3983E-05
inclination uncertainty (°)4.4590E-06
eccentricity uncertainty 4.2222E-08
perihelion distance uncertainty (AU)1.1339E-07
Minimum Orbit Intersection Distances (in AU)
for orbit epoch: 2460200.5, reference: E2023-W66
Mercury1.50796
Venus1.11945
Earth0.86219
Mars0.43158
Jupiter1.98847
Saturn6.22176
Uranus15.108
Neptune27.2271

Observations

1146 total observations over interval: 1963 10 14.20 – 2023 06 19.380631
These data are available for download (format description).

Date (UT) J2000 RA J2000 Dec Magn Location Ref
1963 10 14.20 02 28.0 -02 39 16.0   760 – Goethe Link Observatory, Brooklyn MPC 2308
1998 10 12.42251 03 19 45.64 +03 01 47.5 16.8 R 699 – Lowell Observatory-LONEOS MPS 61529
1998 10 12.44796 03 19 45.13 +03 01 43.9   699 – Lowell Observatory-LONEOS MPS 61529
1998 10 12.47208 03 19 44.64 +03 01 40.6   699 – Lowell Observatory-LONEOS MPS 61529
1998 11 13.33576 02 58 01.83 +02 59 01.4 16.7   704 – Lincoln Laboratory ETS, New Mexico MPS 61529
1998 11 13.34567 02 58 01.28 +02 59 03.6   704 – Lincoln Laboratory ETS, New Mexico MPS 61529
1998 11 13.35542 02 58 00.80 +02 59 04.9   704 – Lincoln Laboratory ETS, New Mexico MPS 61529
1998 11 13.36520 02 58 00.23 +02 59 06.0   704 – Lincoln Laboratory ETS, New Mexico MPS 61529
1998 11 13.37496 02 57 59.64 +02 59 08.4 17.3   704 – Lincoln Laboratory ETS, New Mexico MPS 61529
1998 11 19.28751 02 53 18.73 +03 21 41.0 16.0 R 699 – Lowell Observatory-LONEOS MPS 61529
1998 11 19.30035 02 53 18.11 +03 21 44.4   699 – Lowell Observatory-LONEOS MPS 61529
1998 11 19.31315 02 53 17.51 +03 21 47.8   699 – Lowell Observatory-LONEOS MPS 61529
1998 12 14.24583 02 42 57.24 +06 17 50.8 17.0 R 699 – Lowell Observatory-LONEOS MPS 61529
1998 12 14.27130 02 42 57.14 +06 18 04.8   699 – Lowell Observatory-LONEOS MPS 61530
1998 12 14.29684 02 42 57.02 +06 18 18.8   699 – Lowell Observatory-LONEOS MPS 61530
1999 01 07.16163 02 52 02.67 +10 20 36.2 18.3 R 699 – Lowell Observatory-LONEOS MPS 61530
1999 01 07.17690 02 52 03.34 +10 20 46.1   699 – Lowell Observatory-LONEOS MPS 61530
1999 01 07.19221 02 52 03.93 +10 20 55.9   699 – Lowell Observatory-LONEOS MPS 61530
1999 01 11.18225 02 55 15.67 +11 03 56.2 18.4   704 – Lincoln Laboratory ETS, New Mexico MPS 61530
1999 01 11.19271 02 55 16.29 +11 04 04.7 18.4   704 – Lincoln Laboratory ETS, New Mexico MPS 61530
1999 01 11.21375 02 55 17.21 +11 04 16.1 18.6   704 – Lincoln Laboratory ETS, New Mexico MPS 61530
1999 01 11.22423 02 55 17.42 +11 04 24.3 19.0   704 – Lincoln Laboratory ETS, New Mexico MPS 61530
2000 03 05.30843 11 55 42.09 +12 19 17.4 18.5   704 – Lincoln Laboratory ETS, New Mexico MPS 61530
2000 03 05.32164 11 55 41.41 +12 19 22.1 19.5   704 – Lincoln Laboratory ETS, New Mexico MPS 61530
2000 03 05.33487 11 55 40.67 +12 19 27.4 19.6   704 – Lincoln Laboratory ETS, New Mexico MPS 61530
2000 03 05.34809 11 55 40.10 +12 19 32.2 19.3   704 – Lincoln Laboratory ETS, New Mexico MPS 61530
2002 06 11.37131 21 21 08.87 -18 57 05.7 18.5 R 699 – Lowell Observatory-LONEOS MPS 61530
2002 06 11.38722 21 21 09.35 -18 57 07.7   699 – Lowell Observatory-LONEOS MPS 61530
2002 06 11.40305 21 21 09.63 -18 57 10.5   699 – Lowell Observatory-LONEOS MPS 61530
2002 06 11.41893 21 21 10.01 -18 57 13.2   699 – Lowell Observatory-LONEOS MPS 61530
2002 06 18.37293 21 23 12.81 -19 19 39.9 19.0   704 – Lincoln Laboratory ETS, New Mexico MPS 61530
2002 06 18.38648 21 23 13.02 -19 19 44.4 19.0   704 – Lincoln Laboratory ETS, New Mexico MPS 61530
2002 06 18.40007 21 23 13.24 -19 19 47.7 19.4   704 – Lincoln Laboratory ETS, New Mexico MPS 61530
2002 06 18.41345 21 23 13.23 -19 19 53.3 18.9   704 – Lincoln Laboratory ETS, New Mexico MPS 61530
2002 06 26.34584 21 24 01.30 -19 55 25.0 19.0   644 – Palomar Mountain/NEAT MPS 61530
2002 06 26.35730 21 24 01.24 -19 55 28.3 19.4   644 – Palomar Mountain/NEAT MPS 61530
2002 06 26.37209 21 24 01.20 -19 55 33.2 19.2   644 – Palomar Mountain/NEAT MPS 61530
2002 07 05.38144 21 22 48.08 -20 48 47.3 18.9   704 – Lincoln Laboratory ETS, New Mexico MPS 61530
2002 07 05.39456 21 22 47.80 -20 48 53.2 19.0   704 – Lincoln Laboratory ETS, New Mexico MPS 61530
2002 07 05.40766 21 22 47.47 -20 48 58.9 19.0   704 – Lincoln Laboratory ETS, New Mexico MPS 61530
2002 07 05.42078 21 22 47.24 -20 49 03.6 19.0   704 – Lincoln Laboratory ETS, New Mexico MPS 61530
2002 07 17.59967 21 17 27.74 -22 19 48.1 18.7   608 – Haleakala-AMOS MPS 61530
2002 07 17.61027 21 17 27.34 -22 19 53.1 18.5   608 – Haleakala-AMOS MPS 61530
2002 07 17.62099 21 17 26.94 -22 19 58.6 18.8   608 – Haleakala-AMOS MPS 61530
2002 08 11.27513 20 57 05.45 -25 44 44.6 17.1   644 – Palomar Mountain/NEAT MPS 61530
2002 08 11.35048 20 57 01.00 -25 45 18.6 17.1   644 – Palomar Mountain/NEAT MPS 61530
2002 08 11.41315 20 56 57.33 -25 45 46.5 17.2   644 – Palomar Mountain/NEAT MPS 61530
2002 08 13.23234 20 55 15.54 -25 59 12.7 18.0   704 – Lincoln Laboratory ETS, New Mexico MPS 61530
2002 08 13.24783 20 55 14.60 -25 59 19.8 18.4   704 – Lincoln Laboratory ETS, New Mexico MPS 61530
2002 08 13.26333 20 55 13.71 -25 59 26.4 18.7   704 – Lincoln Laboratory ETS, New Mexico MPS 61530
2002 08 13.27881 20 55 12.78 -25 59 33.5 18.3   704 – Lincoln Laboratory ETS, New Mexico MPS 61530
2002 08 13.29430 20 55 11.90 -25 59 40.0 18.3   704 – Lincoln Laboratory ETS, New Mexico MPS 61530
2002 08 30.16517 20 41 23.67 -27 35 25.7 17.5   644 – Palomar Mountain/NEAT MPS 61530
2002 08 30.18618 20 41 22.80 -27 35 30.8 17.4   644 – Palomar Mountain/NEAT MPS 61530
2002 08 30.20732 20 41 21.93 -27 35 35.8 17.3   644 – Palomar Mountain/NEAT MPS 61530
2002 08 31.19859 20 40 44.42 -27 39 23.1 18.0   704 – Lincoln Laboratory ETS, New Mexico MPS 61530
2002 08 31.21233 20 40 43.90 -27 39 26.3 18.3   704 – Lincoln Laboratory ETS, New Mexico MPS 61530
2002 08 31.22615 20 40 43.33 -27 39 30.2 18.3   704 – Lincoln Laboratory ETS, New Mexico MPS 61530
2002 08 31.23989 20 40 42.79 -27 39 32.7 18.6   704 – Lincoln Laboratory ETS, New Mexico MPS 61530
2002 09 26.10375 20 36 08.06 -28 03 53.8 17.8   704 – Lincoln Laboratory ETS, New Mexico MPS 63382
2002 09 26.12099 20 36 08.31 -28 03 52.1 18.4   704 – Lincoln Laboratory ETS, New Mexico MPS 63382
2002 09 26.13754 20 36 08.58 -28 03 50.5 18.3   704 – Lincoln Laboratory ETS, New Mexico MPS 63382
2002 09 26.15347 20 36 08.81 -28 03 48.9 18.5   704 – Lincoln Laboratory ETS, New Mexico MPS 63382
2002 09 26.16959 20 36 09.02 -28 03 47.2 18.4   704 – Lincoln Laboratory ETS, New Mexico MPS 63382
2003 10 29.45176 09 48 34.30 +16 14 24.5 19.6   704 – Lincoln Laboratory ETS, New Mexico MPS 89415
2003 10 29.46398 09 48 35.19 +16 14 23.3 20.3   704 – Lincoln Laboratory ETS, New Mexico MPS 89415
2003 10 29.47673 09 48 36.14 +16 14 18.2 19.7   704 – Lincoln Laboratory ETS, New Mexico MPS 89415
2003 10 29.48860 09 48 37.13 +16 14 16.9 19.9   704 – Lincoln Laboratory ETS, New Mexico MPS 89415
2003 10 29.50053 09 48 38.08 +16 14 13.1 20.2   704 – Lincoln Laboratory ETS, New Mexico MPS 89415
2003 11 20.47737 10 12 37.48 +15 15 47.1 19.6   704 – Lincoln Laboratory ETS, New Mexico MPS 90969
2003 11 20.48983 10 12 38.19 +15 15 46.5 20.1   704 – Lincoln Laboratory ETS, New Mexico MPS 90969
2003 11 20.50233 10 12 38.85 +15 15 44.9 19.7   704 – Lincoln Laboratory ETS, New Mexico MPS 90969
2003 12 01.40233 10 21 14.03 +15 07 04.3 19.3   704 – Lincoln Laboratory ETS, New Mexico MPS 92720
2003 12 01.44130 10 21 15.50 +15 07 03.6 19.5   704 – Lincoln Laboratory ETS, New Mexico MPS 92720
2003 12 01.45413 10 21 15.98 +15 07 02.2 19.8   704 – Lincoln Laboratory ETS, New Mexico MPS 92720
2003 12 23.39785 10 30 15.30 +15 44 06.6   704 – Lincoln Laboratory ETS, New Mexico MPS 406563
2003 12 23.41111 10 30 15.32 +15 44 07.3   704 – Lincoln Laboratory ETS, New Mexico MPS 406563
2003 12 23.42450 10 30 15.36 +15 44 08.3   704 – Lincoln Laboratory ETS, New Mexico MPS 406563
2003 12 23.43781 10 30 15.44 +15 44 10.2   704 – Lincoln Laboratory ETS, New Mexico MPS 406563
2003 12 28.40038 10 30 32.86 +16 03 43.4 19.2 C 704 – Lincoln Laboratory ETS, New Mexico MPS 293955
2003 12 28.42640 10 30 32.79 +16 03 48.3 19.1 C 704 – Lincoln Laboratory ETS, New Mexico MPS 293955
2003 12 28.43954 10 30 32.78 +16 03 52.9 19.3 C 704 – Lincoln Laboratory ETS, New Mexico MPS 293955
2003 12 28.45264 10 30 32.76 +16 03 56.1 19.3 C 704 – Lincoln Laboratory ETS, New Mexico MPS 293955
2004 01 05.34567 10 29 34.52 +16 43 12.9 18.8 R 699 – Lowell Observatory-LONEOS MPS 96353
2004 01 05.36562 10 29 34.17 +16 43 19.3   699 – Lowell Observatory-LONEOS MPS 96353
2004 01 05.38569 10 29 33.79 +16 43 26.4   699 – Lowell Observatory-LONEOS MPS 96353
2004 01 05.40574 10 29 33.53 +16 43 34.7   699 – Lowell Observatory-LONEOS MPS 96353
